Time,TemperatureF,DewpointF,PressureIn,WindDirection,WindDirectionDegrees,WindSpeedMPH,WindSpeedGustMPH,Humidity,HourlyPrecipIn,Conditions,Clouds,dailyrainin,SoftwareType,DateUTC
2013-12-18 00:00:00,52.6,49.4,30.30,WNW,300,1.0,1.0,89,0.00,,,0.00,Wunderground v.1.15,2013-12-18 05:00:00,
2013-12-18 00:05:00,52.4,49.6,30.30,WNW,299,0.0,34.0,90,0.00,,,0.00,Wunderground v.1.15,2013-12-18 05:05:00,
2013-12-18 00:10:00,52.3,49.5,30.30,WNW,302,1.0,1.0,90,0.00,,,0.00,Wunderground v.1.15,2013-12-18 05:10:00,
2013-12-18 00:15:00,52.3,49.5,30.29,WNW,303,1.0,34.0,90,0.00,,,0.00,Wunderground v.1.15,2013-12-18 05:15:00,
2013-12-18 00:20:00,52.1,49.0,30.29,NW,307,0.0,34.0,89,0.00,,,0.00,Wunderground v.1.15,2013-12-18 05:20:00,
2013-12-18 00:25:00,51.9,48.8,30.29,WNW,301,0.0,34.0,89,0.00,,,0.00,Wunderground v.1.15,2013-12-18 05:25:00,
2013-12-18 00:30:00,51.8,48.7,30.29,NW,304,0.0,34.0,89,0.00,,,0.00,Wunderground v.1.15,2013-12-18 05:30:00,
2013-12-18 00:35:00,51.6,48.5,30.29,NW,306,1.0,34.0,89,0.00,,,0.00,Wunderground v.1.15,2013-12-18 05:35:00,
2013-12-18 00:40:00,51.8,48.7,30.29,WNW,298,2.0,34.0,89,0.00,,,0.00,Wunderground v.1.15,2013-12-18 05:40:00,
2013-12-18 00:45:00,51.9,48.5,30.29,NW,311,4.0,34.0,88,0.00,,,0.00,Wunderground v.1.15,2013-12-18 05:45:00,
2013-12-18 00:50:00,51.9,48.5,30.29,WNW,293,5.0,5.0,88,0.00,,,0.00,Wunderground v.1.15,2013-12-18 05:50:00,
2013-12-18 00:55:00,51.8,48.1,30.29,NW,312,5.0,34.0,87,0.00,,,0.00,Wunderground v.1.15,2013-12-18 05:55:00,
2013-12-18 01:00:00,51.7,47.6,30.29,WNW,303,5.0,5.0,86,0.00,,,0.00,Wunderground v.1.15,2013-12-18 06:00:00,
2013-12-18 01:10:00,51.6,47.5,30.29,WNW,299,0.0,34.0,86,0.00,,,0.00,Wunderground v.1.15,2013-12-18 06:10:00,
2013-12-18 01:15:00,51.4,47.7,30.29,WNW,300,0.0,34.0,87,0.00,,,0.00,Wunderground v.1.15,2013-12-18 06:15:00,
2013-12-18 01:20:00,51.3,47.9,30.29,WNW,300,0.0,34.0,88,0.00,,,0.00,Wunderground v.1.15,2013-12-18 06:20:00,
2013-12-18 01:25:00,51.2,47.8,30.29,NW,304,0.0,34.0,88,0.00,,,0.00,Wunderground v.1.15,2013-12-18 06:25:00,
2013-12-18 01:30:00,51.1,47.7,30.29,WNW,292,0.0,34.0,88,0.00,,,0.00,Wunderground v.1.15,2013-12-18 06:30:00,
2013-12-18 01:35:00,51.0,47.6,30.29,WNW,302,0.0,34.0,88,0.00,,,0.00,Wunderground v.1.15,2013-12-18 06:35:00,
2013-12-18 01:40:00,51.0,47.9,30.29,WNW,300,0.0,34.0,89,0.00,,,0.00,Wunderground v.1.15,2013-12-18 06:40:00,
2013-12-18 01:45:00,51.1,47.7,30.29,WNW,300,0.0,34.0,88,0.00,,,0.00,Wunderground v.1.15,2013-12-18 06:45:00,
2013-12-18 01:50:00,51.0,47.9,30.29,WNW,294,0.0,34.0,89,0.00,,,0.00,Wunderground v.1.15,2013-12-18 06:50:00,
2013-12-18 01:55:00,50.8,47.4,30.29,WNW,295,1.0,34.0,88,0.00,,,0.00,Wunderground v.1.15,2013-12-18 06:55:00,
2013-12-18 02:00:00,50.8,47.4,30.29,WNW,302,2.0,34.0,88,0.00,,,0.00,Wunderground v.1.15,2013-12-18 07:00:00,
2013-12-18 02:05:00,50.9,47.5,30.29,NW,304,2.0,34.0,88,0.00,,,0.00,Wunderground v.1.15,2013-12-18 07:05:00,
2013-12-18 02:10:00,50.9,47.5,30.29,WNW,296,1.0,1.0,88,0.00,,,0.00,Wunderground v.1.15,2013-12-18 07:10:00,
2013-12-18 02:15:00,50.8,47.4,30.29,WNW,293,0.0,34.0,88,0.00,,,0.00,Wunderground v.1.15,2013-12-18 07:15:00,
2013-12-18 02:20:00,50.8,47.7,30.29,NW,307,1.0,34.0,89,0.00,,,0.00,Wunderground v.1.15,2013-12-18 07:20:00,
2013-12-18 02:25:00,50.8,47.4,30.29,NW,304,2.0,34.0,88,0.00,,,0.00,Wunderground v.1.15,2013-12-18 07:25:00,
2013-12-18 02:30:00,50.8,47.4,30.28,WNW,297,4.0,4.0,88,0.00,,,0.00,Wunderground v.1.15,2013-12-18 07:30:00,
2013-12-18 02:35:00,50.8,47.4,30.28,WNW,299,3.0,34.0,88,0.00,,,0.00,Wunderground v.1.15,2013-12-18 07:35:00,
2013-12-18 02:40:00,50.9,47.2,30.28,NW,304,1.0,1.0,87,0.00,,,0.00,Wunderground v.1.15,2013-12-18 07:40:00,
2013-12-18 02:45:00,51.0,47.3,30.28,NW,306,1.0,4.0,87,0.00,,,0.00,Wunderground v.1.15,2013-12-18 07:45:00,
2013-12-18 02:50:00,50.9,47.2,30.28,NW,306,2.0,34.0,87,0.00,,,0.00,Wunderground v.1.15,2013-12-18 07:50:00,
2013-12-18 02:55:00,50.8,47.1,30.28,NW,315,3.0,34.0,87,0.00,,,0.00,Wunderground v.1.15,2013-12-18 07:55:00,
2013-12-18 03:00:00,50.8,47.1,30.28,NW,312,2.0,2.0,87,0.00,,,0.00,Wunderground v.1.15,2013-12-18 08:00:00,
2013-12-18 03:05:00,50.6,46.6,30.28,NW,307,1.0,5.0,86,0.00,,,0.00,Wunderground v.1.15,2013-12-18 08:05:00,
2013-12-18 03:10:00,50.6,46.3,30.28,WNW,301,3.0,34.0,85,0.00,,,0.00,Wunderground v.1.15,2013-12-18 08:10:00,
2013-12-18 03:15:00,50.5,46.2,30.28,WNW,302,3.0,34.0,85,0.00,,,0.00,Wunderground v.1.15,2013-12-18 08:15:00,
2013-12-18 03:20:00,50.5,45.8,30.28,NW,306,2.0,2.0,84,0.00,,,0.00,Wunderground v.1.15,2013-12-18 08:20:00,
2013-12-18 03:25:00,50.5,45.8,30.28,WNW,300,2.0,34.0,84,0.00,,,0.00,Wunderground v.1.15,2013-12-18 08:25:00,
2013-12-18 03:30:00,50.4,45.4,30.28,NW,306,1.0,34.0,83,0.00,,,0.00,Wunderground v.1.15,2013-12-18 08:30:00,
2013-12-18 03:35:00,50.4,45.4,30.28,WNW,302,1.0,34.0,83,0.00,,,0.00,Wunderground v.1.15,2013-12-18 08:35:00,
2013-12-18 03:40:00,50.4,45.4,30.28,NW,314,1.0,1.0,83,0.00,,,0.00,Wunderground v.1.15,2013-12-18 08:40:00,
2013-12-18 03:45:00,50.4,45.4,30.28,NW,307,0.0,34.0,83,0.00,,,0.00,Wunderground v.1.15,2013-12-18 08:45:00,
2013-12-18 03:50:00,50.3,45.3,30.28,NW,304,0.0,34.0,83,0.00,,,0.00,Wunderground v.1.15,2013-12-18 08:50:00,
2013-12-18 03:55:00,50.3,45.3,30.28,NW,312,0.0,34.0,83,0.00,,,0.00,Wunderground v.1.15,2013-12-18 08:55:00,
2013-12-18 04:00:00,50.4,44.8,30.28,NW,309,1.0,1.0,81,0.00,,,0.00,Wunderground v.1.15,2013-12-18 09:00:00,
2013-12-18 04:05:00,50.5,44.9,30.28,NW,307,2.0,2.0,81,0.00,,,0.00,Wunderground v.1.15,2013-12-18 09:05:00,
2013-12-18 04:10:00,50.5,44.9,30.28,NW,311,1.0,1.0,81,0.00,,,0.00,Wunderground v.1.15,2013-12-18 09:10:00,
2013-12-18 04:15:00,50.4,44.8,30.29,NW,311,0.0,34.0,81,0.00,,,0.00,Wunderground v.1.15,2013-12-18 09:15:00,
2013-12-18 04:20:00,50.4,44.8,30.29,NW,315,0.0,34.0,81,0.00,,,0.00,Wunderground v.1.15,2013-12-18 09:20:00,
2013-12-18 04:25:00,50.4,45.1,30.29,NW,310,0.0,34.0,82,0.00,,,0.00,Wunderground v.1.15,2013-12-18 09:25:00,
2013-12-18 04:35:00,50.3,45.0,30.28,NW,318,0.0,34.0,82,0.00,,,0.00,Wunderground v.1.15,2013-12-18 09:35:00,
2013-12-18 04:40:00,50.3,45.0,30.28,NW,320,0.0,34.0,82,0.00,,,0.00,Wunderground v.1.15,2013-12-18 09:40:00,
2013-12-18 04:45:00,50.2,44.6,30.29,NW,323,0.0,34.0,81,0.00,,,0.00,Wunderground v.1.15,2013-12-18 09:45:00,
2013-12-18 04:50:00,50.1,44.2,30.28,NNW,327,0.0,34.0,80,0.00,,,0.00,Wunderground v.1.15,2013-12-18 09:50:00,
2013-12-18 04:55:00,49.9,43.6,30.29,NNW,329,0.0,34.0,79,0.00,,,0.00,Wunderground v.1.15,2013-12-18 09:55:00,
2013-12-18 05:00:00,49.7,42.8,30.28,NW,324,0.0,34.0,77,0.00,,,0.00,Wunderground v.1.15,2013-12-18 10:00:00,
2013-12-18 05:05:00,49.4,42.8,30.28,NNW,340,0.0,34.0,78,0.00,,,0.00,Wunderground v.1.15,2013-12-18 10:05:00,
2013-12-18 05:10:00,49.3,43.1,30.28,North,355,0.0,34.0,79,0.00,,,0.00,Wunderground v.1.15,2013-12-18 10:10:00,
2013-12-18 05:15:00,49.5,43.6,30.28,North,355,0.0,34.0,80,0.00,,,0.00,Wunderground v.1.15,2013-12-18 10:15:00,
2013-12-18 05:20:00,49.7,44.1,30.28,NNE,12,2.0,34.0,81,0.00,,,0.00,Wunderground v.1.15,2013-12-18 10:20:00,
2013-12-18 05:25:00,50.1,43.8,30.28,NNE,14,6.0,34.0,79,0.00,,,0.00,Wunderground v.1.15,2013-12-18 10:25:00,
2013-12-18 05:30:00,50.4,44.5,30.28,NNE,23,9.0,9.0,80,0.00,,,0.00,Wunderground v.1.15,2013-12-18 10:30:00,
2013-12-18 05:35:00,50.8,44.9,30.28,NNE,18,8.0,34.0,80,0.00,,,0.00,Wunderground v.1.15,2013-12-18 10:35:00,
2013-12-18 05:40:00,51.0,44.7,30.28,NNE,17,8.0,34.0,79,0.00,,,0.00,Wunderground v.1.15,2013-12-18 10:40:00,
2013-12-18 05:45:00,51.0,44.7,30.28,NNE,23,9.0,34.0,79,0.00,,,0.00,Wunderground v.1.15,2013-12-18 10:45:00,
2013-12-18 05:50:00,51.0,44.7,30.28,NNE,17,10.0,10.0,79,0.00,,,0.00,Wunderground v.1.15,2013-12-18 10:50:00,
2013-12-18 05:55:00,50.8,45.2,30.28,NNE,22,11.0,11.0,81,0.00,,,0.00,Wunderground v.1.15,2013-12-18 10:55:00,
2013-12-18 06:00:00,50.6,44.3,30.28,NNE,23,12.0,34.0,79,0.00,,,0.00,Wunderground v.1.15,2013-12-18 11:00:00,
2013-12-18 06:05:00,50.6,44.7,30.29,NNE,22,14.0,34.0,80,0.00,,,0.00,Wunderground v.1.15,2013-12-18 11:05:00,
2013-12-18 06:10:00,50.7,44.8,30.29,NNE,25,15.0,34.0,80,0.00,,,0.00,Wunderground v.1.15,2013-12-18 11:10:00,
2013-12-18 06:15:00,50.8,44.9,30.29,NNE,16,15.0,34.0,80,0.00,,,0.00,Wunderground v.1.15,2013-12-18 11:15:00,
2013-12-18 06:20:00,50.8,44.9,30.29,NNE,24,15.0,34.0,80,0.00,,,0.00,Wunderground v.1.15,2013-12-18 11:20:00,
2013-12-18 06:25:00,50.8,45.2,30.29,NNE,16,15.0,34.0,81,0.00,,,0.00,Wunderground v.1.15,2013-12-18 11:25:00,
2013-12-18 06:30:00,51.0,45.7,30.29,NNE,26,15.0,15.0,82,0.00,,,0.00,Wunderground v.1.15,2013-12-18 11:30:00,
2013-12-18 06:35:00,51.1,46.1,30.30,NNE,27,15.0,34.0,83,0.00,,,0.00,Wunderground v.1.15,2013-12-18 11:35:00,
2013-12-18 06:40:00,51.0,46.3,30.30,NNE,17,14.0,34.0,84,0.00,,,0.00,Wunderground v.1.15,2013-12-18 11:40:00,
2013-12-18 06:45:00,51.0,46.6,30.30,NNE,25,15.0,34.0,85,0.00,,,0.00,Wunderground v.1.15,2013-12-18 11:45:00,
2013-12-18 06:50:00,51.0,46.6,30.30,NNE,24,16.0,34.0,85,0.00,,,0.00,Wunderground v.1.15,2013-12-18 11:50:00,
2013-12-18 06:55:00,51.0,46.6,30.30,NNE,24,17.0,34.0,85,0.00,,,0.00,Wunderground v.1.15,2013-12-18 11:55:00,
2013-12-18 07:05:00,50.9,46.6,30.31,NNE,28,18.0,34.0,85,0.00,,,0.00,Wunderground v.1.15,2013-12-18 12:05:00,
2013-12-18 07:10:00,50.9,46.6,30.31,NNE,24,19.0,34.0,85,0.00,,,0.00,Wunderground v.1.15,2013-12-18 12:10:00,
2013-12-18 07:15:00,50.8,46.5,30.31,NNE,30,19.0,34.0,85,0.00,,,0.00,Wunderground v.1.15,2013-12-18 12:15:00,
2013-12-18 07:20:00,50.8,46.8,30.31,NNE,30,19.0,34.0,86,0.00,,,0.00,Wunderground v.1.15,2013-12-18 12:20:00,
2013-12-18 07:25:00,50.8,46.8,30.31,NNE,28,19.0,34.0,86,0.00,,,0.00,Wunderground v.1.15,2013-12-18 12:25:00,
2013-12-18 07:30:00,50.7,46.7,30.31,NNE,26,19.0,19.0,86,0.00,,,0.00,Wunderground v.1.15,2013-12-18 12:30:00,
2013-12-18 07:35:00,50.7,46.7,30.31,NE,34,19.0,34.0,86,0.00,,,0.00,Wunderground v.1.15,2013-12-18 12:35:00,
2013-12-18 07:40:00,50.7,47.0,30.31,NE,44,18.0,18.0,87,0.00,,,0.00,Wunderground v.1.15,2013-12-18 12:40:00,
2013-12-18 07:45:00,50.8,46.8,30.31,NE,40,17.0,20.0,86,0.00,,,0.00,Wunderground v.1.15,2013-12-18 12:45:00,
2013-12-18 07:50:00,50.8,46.8,30.32,NE,41,18.0,34.0,86,0.00,,,0.00,Wunderground v.1.15,2013-12-18 12:50:00,
2013-12-18 07:55:00,50.8,46.5,30.32,NE,38,18.0,34.0,85,0.00,,,0.00,Wunderground v.1.15,2013-12-18 12:55:00,
2013-12-18 08:00:00,51.0,46.6,30.32,NE,34,18.0,34.0,85,0.00,,,0.00,Wunderground v.1.15,2013-12-18 13:00:00,
2013-12-18 08:05:00,51.0,46.6,30.32,NNE,32,18.0,34.0,85,0.00,,,0.00,Wunderground v.1.15,2013-12-18 13:05:00,
2013-12-18 08:10:00,51.0,46.6,30.32,NE,44,18.0,18.0,85,0.00,,,0.00,Wunderground v.1.15,2013-12-18 13:10:00,
2013-12-18 08:15:00,51.2,46.8,30.32,NE,39,18.0,34.0,85,0.00,,,0.00,Wunderground v.1.15,2013-12-18 13:15:00,
2013-12-18 08:20:00,51.2,46.5,30.32,NE,42,17.0,17.0,84,0.00,,,0.00,Wunderground v.1.15,2013-12-18 13:20:00,
2013-12-18 08:25:00,51.5,46.5,30.32,NE,43,17.0,18.0,83,0.00,,,0.00,Wunderground v.1.15,2013-12-18 13:25:00,
2013-12-18 08:30:00,51.7,45.7,30.33,NE,44,17.0,34.0,80,0.00,,,0.00,Wunderground v.1.15,2013-12-18 13:30:00,
2013-12-18 08:35:00,51.7,45.1,30.33,NE,56,18.0,34.0,78,0.00,,,0.00,Wunderground v.1.15,2013-12-18 13:35:00,
2013-12-18 08:40:00,51.8,45.5,30.33,NE,44,18.0,34.0,79,0.00,,,0.00,Wunderground v.1.15,2013-12-18 13:40:00,
2013-12-18 08:45:00,51.8,45.5,30.33,NE,42,18.0,34.0,79,0.00,,,0.00,Wunderground v.1.15,2013-12-18 13:45:00,
2013-12-18 08:50:00,51.7,45.1,30.34,NE,46,18.0,34.0,78,0.00,,,0.00,Wunderground v.1.15,2013-12-18 13:50:00,
2013-12-18 08:55:00,51.7,45.4,30.34,NE,53,18.0,34.0,79,0.00,,,0.00,Wunderground v.1.15,2013-12-18 13:55:00,
2013-12-18 09:00:00,51.7,45.7,30.34,NE,46,18.0,34.0,80,0.00,,,0.00,Wunderground v.1.15,2013-12-18 14:00:00,
2013-12-18 09:05:00,51.5,44.9,30.34,NE,44,18.0,34.0,78,0.00,,,0.00,Wunderground v.1.15,2013-12-18 14:05:00,
2013-12-18 09:10:00,51.5,44.9,30.34,NE,42,19.0,19.0,78,0.00,,,0.00,Wunderground v.1.15,2013-12-18 14:10:00,
2013-12-18 09:15:00,51.5,45.2,30.34,NE,43,19.0,34.0,79,0.00,,,0.00,Wunderground v.1.15,2013-12-18 14:15:00,
2013-12-18 09:20:00,51.3,44.3,30.35,NE,49,19.0,34.0,77,0.00,,,0.00,Wunderground v.1.15,2013-12-18 14:20:00,
2013-12-18 09:25:00,51.3,44.7,30.35,ENE,57,19.0,34.0,78,0.00,,,0.00,Wunderground v.1.15,2013-12-18 14:25:00,
2013-12-18 09:30:00,51.1,44.5,30.35,ENE,57,18.0,18.0,78,0.00,,,0.00,Wunderground v.1.15,2013-12-18 14:30:00,
2013-12-18 09:35:00,51.1,44.5,30.35,NE,50,17.0,34.0,78,0.00,,,0.00,Wunderground v.1.15,2013-12-18 14:35:00,
2013-12-18 09:40:00,50.9,44.3,30.36,NE,56,17.0,17.0,78,0.00,,,0.00,Wunderground v.1.15,2013-12-18 14:40:00,
2013-12-18 09:45:00,51.0,45.0,30.36,ENE,58,16.0,34.0,80,0.00,,,0.00,Wunderground v.1.15,2013-12-18 14:45:00,
2013-12-18 09:50:00,50.9,44.6,30.36,NE,46,16.0,16.0,79,0.00,,,0.00,Wunderground v.1.15,2013-12-18 14:50:00,
2013-12-18 09:55:00,50.9,44.6,30.36,ENE,64,16.0,17.0,79,0.00,,,0.00,Wunderground v.1.15,2013-12-18 14:55:00,
2013-12-18 10:05:00,51.1,44.8,30.36,ENE,61,15.0,34.0,79,0.00,,,0.00,Wunderground v.1.15,2013-12-18 15:05:00,
2013-12-18 10:10:00,51.1,44.5,30.37,ENE,61,15.0,34.0,78,0.00,,,0.00,Wunderground v.1.15,2013-12-18 15:10:00,
2013-12-18 10:15:00,51.0,44.4,30.37,ENE,61,16.0,34.0,78,0.00,,,0.00,Wunderground v.1.15,2013-12-18 15:15:00,
2013-12-18 10:20:00,51.0,44.7,30.37,NE,53,16.0,16.0,79,0.00,,,0.00,Wunderground v.1.15,2013-12-18 15:20:00,
2013-12-18 10:25:00,51.0,44.4,30.37,ENE,61,16.0,18.0,78,0.00,,,0.00,Wunderground v.1.15,2013-12-18 15:25:00,
2013-12-18 10:30:00,51.1,44.8,30.37,NE,56,16.0,34.0,79,0.00,,,0.00,Wunderground v.1.15,2013-12-18 15:30:00,
2013-12-18 10:35:00,51.0,44.7,30.37,NE,47,16.0,34.0,79,0.00,,,0.00,Wunderground v.1.15,2013-12-18 15:35:00,
2013-12-18 10:45:00,51.0,44.7,30.37,NE,49,13.0,34.0,79,0.00,,,0.00,Wunderground v.1.15,2013-12-18 15:45:00,
2013-12-18 10:50:00,51.0,45.0,30.37,NE,55,13.0,34.0,80,0.00,,,0.00,Wunderground v.1.15,2013-12-18 15:50:00,
2013-12-18 10:55:00,51.0,45.0,30.37,ENE,66,13.0,34.0,80,0.00,,,0.00,Wunderground v.1.15,2013-12-18 15:55:00,
2013-12-18 11:00:00,51.0,44.7,30.37,NE,56,12.0,34.0,79,0.00,,,0.00,Wunderground v.1.15,2013-12-18 16:00:00,
2013-12-18 11:05:00,51.0,44.7,30.37,NE,55,12.0,34.0,79,0.00,,,0.00,Wunderground v.1.15,2013-12-18 16:05:00,
2013-12-18 11:10:00,51.0,44.4,30.37,ENE,57,12.0,34.0,78,0.00,,,0.00,Wunderground v.1.15,2013-12-18 16:10:00,
2013-12-18 11:20:00,51.1,45.1,30.37,NE,51,12.0,34.0,80,0.00,,,0.00,Wunderground v.1.15,2013-12-18 16:20:00,
2013-12-18 11:25:00,51.1,45.1,30.37,NE,47,11.0,34.0,80,0.00,,,0.00,Wunderground v.1.15,2013-12-18 16:25:00,
2013-12-18 11:30:00,51.2,44.9,30.37,ENE,57,10.0,10.0,79,0.00,,,0.00,Wunderground v.1.15,2013-12-18 16:30:00,
2013-12-18 11:35:00,51.3,45.3,30.37,NE,53,10.0,34.0,80,0.00,,,0.00,Wunderground v.1.15,2013-12-18 16:35:00,
2013-12-18 11:40:00,51.4,45.1,30.37,NE,51,9.0,34.0,79,0.00,,,0.00,Wunderground v.1.15,2013-12-18 16:40:00,
2013-12-18 11:45:00,51.5,45.2,30.37,NE,49,9.0,34.0,79,0.00,,,0.00,Wunderground v.1.15,2013-12-18 16:45:00,
2013-12-18 11:50:00,51.7,45.4,30.37,NE,49,9.0,9.0,79,0.00,,,0.00,Wunderground v.1.15,2013-12-18 16:50:00,
2013-12-18 11:55:00,51.8,45.5,30.37,NE,45,8.0,10.0,79,0.00,,,0.00,Wunderground v.1.15,2013-12-18 16:55:00,
2013-12-18 12:00:00,52.0,45.7,30.37,NE,43,8.0,34.0,79,0.00,,,0.00,Wunderground v.1.15,2013-12-18 17:00:00,
2013-12-18 12:05:00,51.9,45.3,30.37,NE,49,8.0,34.0,78,0.00,,,0.00,Wunderground v.1.15,2013-12-18 17:05:00,
2013-12-18 12:10:00,52.1,45.4,30.36,NE,47,7.0,34.0,78,0.00,,,0.00,Wunderground v.1.15,2013-12-18 17:10:00,
2013-12-18 12:15:00,52.3,45.3,30.36,NE,50,6.0,34.0,77,0.00,,,0.00,Wunderground v.1.15,2013-12-18 17:15:00,
2013-12-18 12:25:00,52.7,46.7,30.36,NNE,32,3.0,34.0,80,0.00,,,0.00,Wunderground v.1.15,2013-12-18 17:25:00,
2013-12-18 12:30:00,52.7,46.7,30.36,NNE,32,1.0,1.0,80,0.00,,,0.00,Wunderground v.1.15,2013-12-18 17:30:00,
2013-12-18 12:35:00,52.8,46.5,30.36,NNE,29,0.0,34.0,79,0.00,,,0.00,Wunderground v.1.15,2013-12-18 17:35:00,
2013-12-18 12:40:00,52.8,46.8,30.35,NNE,28,0.0,34.0,80,0.00,,,0.00,Wunderground v.1.15,2013-12-18 17:40:00,
2013-12-18 12:45:00,52.9,47.9,30.35,North,5,0.0,34.0,83,0.00,,,0.00,Wunderground v.1.15,2013-12-18 17:45:00,
2013-12-18 12:50:00,52.8,47.8,30.35,North,5,0.0,34.0,83,0.00,,,0.00,Wunderground v.1.15,2013-12-18 17:50:00,
2013-12-18 12:55:00,52.8,48.1,30.34,NNE,13,1.0,34.0,84,0.00,,,0.00,Wunderground v.1.15,2013-12-18 17:55:00,
2013-12-18 13:00:00,52.9,48.2,30.34,NNE,13,1.0,1.0,84,0.00,,,0.00,Wunderground v.1.15,2013-12-18 18:00:00,
2013-12-18 13:05:00,52.8,48.1,30.34,NNE,13,1.0,34.0,84,0.00,,,0.00,Wunderground v.1.15,2013-12-18 18:05:00,
2013-12-18 13:10:00,52.9,47.9,30.33,NNE,14,0.0,34.0,83,0.00,,,0.00,Wunderground v.1.15,2013-12-18 18:10:00,
2013-12-18 13:15:00,53.0,48.0,30.33,NNE,15,0.0,34.0,83,0.00,,,0.00,Wunderground v.1.15,2013-12-18 18:15:00,
2013-12-18 13:20:00,53.2,48.2,30.33,NNE,15,2.0,2.0,83,0.00,,,0.00,Wunderground v.1.15,2013-12-18 18:20:00,
2013-12-18 13:25:00,53.3,47.9,30.32,NNE,15,2.0,34.0,82,0.00,,,0.00,Wunderground v.1.15,2013-12-18 18:25:00,
2013-12-18 13:30:00,53.4,48.0,30.32,NNE,15,0.0,34.0,82,0.00,,,0.00,Wunderground v.1.15,2013-12-18 18:30:00,
2013-12-18 13:35:00,53.7,48.0,30.32,NNE,15,0.0,34.0,81,0.00,,,0.00,Wunderground v.1.15,2013-12-18 18:35:00,
2013-12-18 13:40:00,53.8,48.1,30.32,NNE,15,0.0,34.0,81,0.00,,,0.00,Wunderground v.1.15,2013-12-18 18:40:00,
2013-12-18 13:50:00,54.0,47.6,30.31,NNE,14,0.0,34.0,79,0.00,,,0.00,Wunderground v.1.15,2013-12-18 18:50:00,
2013-12-18 13:55:00,54.0,47.3,30.31,NNE,14,0.0,34.0,78,0.00,,,0.00,Wunderground v.1.15,2013-12-18 18:55:00,
2013-12-18 14:00:00,54.3,47.2,30.31,NNE,15,1.0,34.0,77,0.00,,,0.00,Wunderground v.1.15,2013-12-18 19:00:00,
2013-12-18 14:05:00,54.5,47.8,30.31,NNE,26,3.0,34.0,78,0.00,,,0.00,Wunderground v.1.15,2013-12-18 19:05:00,
2013-12-18 14:10:00,54.6,47.9,30.30,NNE,24,2.0,2.0,78,0.00,,,0.00,Wunderground v.1.15,2013-12-18 19:10:00,
2013-12-18 14:15:00,54.8,46.7,30.30,NNE,25,0.0,34.0,74,0.00,,,0.00,Wunderground v.1.15,2013-12-18 19:15:00,
2013-12-18 14:20:00,55.2,46.7,30.30,NNE,25,0.0,34.0,73,0.00,,,0.00,Wunderground v.1.15,2013-12-18 19:20:00,
2013-12-18 14:25:00,55.4,46.2,30.30,NNE,25,0.0,34.0,71,0.00,,,0.00,Wunderground v.1.15,2013-12-18 19:25:00,
2013-12-18 14:30:00,55.7,46.1,30.29,NNE,25,0.0,34.0,70,0.00,,,0.00,Wunderground v.1.15,2013-12-18 19:30:00,
2013-12-18 14:35:00,55.8,45.0,30.29,NNE,28,0.0,34.0,67,0.00,,,0.00,Wunderground v.1.15,2013-12-18 19:35:00,
2013-12-18 14:40:00,56.0,45.2,30.29,NE,37,3.0,34.0,67,0.00,,,0.00,Wunderground v.1.15,2013-12-18 19:40:00,
2013-12-18 14:45:00,56.3,45.1,30.29,NE,37,4.0,34.0,66,0.00,,,0.00,Wunderground v.1.15,2013-12-18 19:45:00,
2013-12-18 14:50:00,56.4,44.8,30.29,NE,37,2.0,2.0,65,0.00,,,0.00,Wunderground v.1.15,2013-12-18 19:50:00,
2013-12-18 14:55:00,56.6,44.6,30.29,NE,37,0.0,34.0,64,0.00,,,0.00,Wunderground v.1.15,2013-12-18 19:55:00,
2013-12-18 15:00:00,57.0,45.7,30.29,NE,37,0.0,34.0,66,0.00,,,0.00,Wunderground v.1.15,2013-12-18 20:00:00,
2013-12-18 15:05:00,57.2,46.7,30.29,NE,37,0.0,34.0,68,0.00,,,0.00,Wunderground v.1.15,2013-12-18 20:05:00,
2013-12-18 15:10:00,57.1,47.0,30.29,NE,37,0.0,34.0,69,0.00,,,0.00,Wunderground v.1.15,2013-12-18 20:10:00,
2013-12-18 15:15:00,57.2,46.7,30.28,NE,37,0.0,34.0,68,0.00,,,0.00,Wunderground v.1.15,2013-12-18 20:15:00,
2013-12-18 15:20:00,57.2,45.9,30.28,NE,37,0.0,34.0,66,0.00,,,0.00,Wunderground v.1.15,2013-12-18 20:20:00,
2013-12-18 15:25:00,57.4,45.7,30.28,East,88,0.0,34.0,65,0.00,,,0.00,Wunderground v.1.15,2013-12-18 20:25:00,
2013-12-18 15:30:00,57.6,45.9,30.28,East,88,0.0,34.0,65,0.00,,,0.00,Wunderground v.1.15,2013-12-18 20:30:00,
2013-12-18 15:35:00,57.7,46.0,30.28,East,88,0.0,34.0,65,0.00,,,0.00,Wunderground v.1.15,2013-12-18 20:35:00,
2013-12-18 15:40:00,57.9,45.8,30.28,East,88,0.0,34.0,64,0.00,,,0.00,Wunderground v.1.15,2013-12-18 20:40:00,
2013-12-18 15:45:00,58.2,46.1,30.29,East,88,0.0,34.0,64,0.00,,,0.00,Wunderground v.1.15,2013-12-18 20:45:00,
2013-12-18 15:50:00,59.5,45.6,30.29,South,182,1.0,34.0,60,0.00,,,0.00,Wunderground v.1.15,2013-12-18 20:50:00,
2013-12-18 15:55:00,60.3,45.5,30.29,South,175,3.0,34.0,58,0.00,,,0.00,Wunderground v.1.15,2013-12-18 20:55:00,
2013-12-18 16:00:00,60.3,45.5,30.29,SSE,165,5.0,34.0,58,0.00,,,0.00,Wunderground v.1.15,2013-12-18 21:00:00,
2013-12-18 16:05:00,59.8,45.4,30.29,South,171,4.0,34.0,59,0.00,,,0.00,Wunderground v.1.15,2013-12-18 21:05:00,
2013-12-18 16:10:00,59.8,46.3,30.29,South,175,4.0,34.0,61,0.00,,,0.00,Wunderground v.1.15,2013-12-18 21:10:00,
2013-12-18 16:15:00,59.7,46.2,30.28,South,179,3.0,34.0,61,0.00,,,0.00,Wunderground v.1.15,2013-12-18 21:15:00,
2013-12-18 16:20:00,59.7,46.7,30.28,South,178,1.0,1.0,62,0.00,,,0.00,Wunderground v.1.15,2013-12-18 21:20:00,
2013-12-18 16:25:00,59.7,46.7,30.29,SSW,193,1.0,34.0,62,0.00,,,0.00,Wunderground v.1.15,2013-12-18 21:25:00,
2013-12-18 16:30:00,59.6,47.0,30.29,SSW,192,1.0,1.0,63,0.00,,,0.00,Wunderground v.1.15,2013-12-18 21:30:00,
2013-12-18 16:35:00,59.6,47.0,30.28,SSW,192,0.0,34.0,63,0.00,,,0.00,Wunderground v.1.15,2013-12-18 21:35:00,
2013-12-18 16:40:00,59.5,46.9,30.28,SSW,192,0.0,34.0,63,0.00,,,0.00,Wunderground v.1.15,2013-12-18 21:40:00,
2013-12-18 16:45:00,59.3,46.7,30.28,SSW,192,0.0,34.0,63,0.00,,,0.00,Wunderground v.1.15,2013-12-18 21:45:00,
2013-12-18 16:50:00,59.4,47.2,30.28,SSW,192,0.0,34.0,64,0.00,,,0.00,Wunderground v.1.15,2013-12-18 21:50:00,
2013-12-18 16:55:00,59.4,47.6,30.28,South,191,0.0,34.0,65,0.00,,,0.00,Wunderground v.1.15,2013-12-18 21:55:00,
2013-12-18 17:05:00,58.9,47.2,30.28,South,189,0.0,34.0,65,0.00,,,0.00,Wunderground v.1.15,2013-12-18 22:05:00,
2013-12-18 17:10:00,58.6,46.9,30.28,South,188,0.0,34.0,65,0.00,,,0.00,Wunderground v.1.15,2013-12-18 22:10:00,
2013-12-18 17:15:00,58.1,47.2,30.28,South,187,0.0,34.0,67,0.00,,,0.00,Wunderground v.1.15,2013-12-18 22:15:00,
2013-12-18 17:20:00,57.9,47.4,30.28,South,187,0.0,34.0,68,0.00,,,0.00,Wunderground v.1.15,2013-12-18 22:20:00,
2013-12-18 17:25:00,57.7,48.0,30.28,South,186,0.0,34.0,70,0.00,,,0.00,Wunderground v.1.15,2013-12-18 22:25:00,
2013-12-18 17:30:00,57.2,47.9,30.28,South,186,0.0,34.0,71,0.00,,,0.00,Wunderground v.1.15,2013-12-18 22:30:00,
2013-12-18 17:35:00,56.9,47.6,30.27,South,186,0.0,34.0,71,0.00,,,0.00,Wunderground v.1.15,2013-12-18 22:35:00,
2013-12-18 17:40:00,56.5,47.6,30.27,South,186,0.0,34.0,72,0.00,,,0.00,Wunderground v.1.15,2013-12-18 22:40:00,
2013-12-18 17:45:00,56.1,47.9,30.27,South,187,0.0,34.0,74,0.00,,,0.00,Wunderground v.1.15,2013-12-18 22:45:00,
2013-12-18 17:50:00,55.7,47.9,30.27,South,186,0.0,34.0,75,0.00,,,0.00,Wunderground v.1.15,2013-12-18 22:50:00,
2013-12-18 17:55:00,55.4,48.3,30.27,South,186,0.0,34.0,77,0.00,,,0.00,Wunderground v.1.15,2013-12-18 22:55:00,
2013-12-18 18:00:00,55.0,48.6,30.27,South,187,0.0,34.0,79,0.00,,,0.00,Wunderground v.1.15,2013-12-18 23:00:00,
2013-12-18 18:05:00,54.7,48.6,30.27,South,186,0.0,34.0,80,0.00,,,0.00,Wunderground v.1.15,2013-12-18 23:05:00,
2013-12-18 18:10:00,54.4,48.7,30.27,South,186,0.0,34.0,81,0.00,,,0.00,Wunderground v.1.15,2013-12-18 23:10:00,
2013-12-18 18:15:00,54.1,48.7,30.27,South,186,0.0,34.0,82,0.00,,,0.00,Wunderground v.1.15,2013-12-18 23:15:00,
2013-12-18 18:20:00,53.9,49.2,30.27,South,186,0.0,34.0,84,0.00,,,0.00,Wunderground v.1.15,2013-12-18 23:20:00,
2013-12-18 18:25:00,53.8,49.4,30.27,South,186,0.0,34.0,85,0.00,,,0.00,Wunderground v.1.15,2013-12-18 23:25:00,
2013-12-18 18:35:00,53.7,49.3,30.27,South,186,5.0,34.0,85,0.00,,,0.00,Wunderground v.1.15,2013-12-18 23:35:00,
2013-12-18 18:40:00,53.7,49.3,30.27,South,186,5.0,5.0,85,0.00,,,0.00,Wunderground v.1.15,2013-12-18 23:40:00,
2013-12-18 18:45:00,53.7,49.3,30.27,South,186,4.0,34.0,85,0.00,,,0.00,Wunderground v.1.15,2013-12-18 23:45:00,
2013-12-18 18:50:00,53.7,49.3,30.27,South,186,4.0,4.0,85,0.00,,,0.00,Wunderground v.1.15,2013-12-18 23:50:00,
2013-12-18 18:55:00,53.7,49.3,30.27,South,186,4.0,34.0,85,0.00,,,0.00,Wunderground v.1.15,2013-12-18 23:55:00,
2013-12-18 19:00:00,53.9,49.5,30.27,South,186,3.0,34.0,85,0.00,,,0.00,Wunderground v.1.15,2013-12-19 00:00:00,
2013-12-18 19:05:00,54.2,49.1,30.27,South,186,3.0,34.0,83,0.00,,,0.00,Wunderground v.1.15,2013-12-19 00:05:00,
2013-12-18 19:10:00,54.4,48.7,30.27,South,186,2.0,34.0,81,0.00,,,0.00,Wunderground v.1.15,2013-12-19 00:10:00,
2013-12-18 19:15:00,54.7,48.6,30.27,South,186,2.0,34.0,80,0.00,,,0.00,Wunderground v.1.15,2013-12-19 00:15:00,
2013-12-18 19:20:00,54.9,48.8,30.27,South,186,3.0,34.0,80,0.00,,,0.00,Wunderground v.1.15,2013-12-19 00:20:00,
2013-12-18 19:25:00,54.7,48.6,30.27,South,186,2.0,34.0,80,0.00,,,0.00,Wunderground v.1.15,2013-12-19 00:25:00,
2013-12-18 19:30:00,54.4,48.0,30.27,South,186,1.0,1.0,79,0.00,,,0.00,Wunderground v.1.15,2013-12-19 00:30:00,
2013-12-18 19:35:00,54.1,48.1,30.27,South,186,0.0,34.0,80,0.00,,,0.00,Wunderground v.1.15,2013-12-19 00:35:00,
2013-12-18 19:40:00,53.9,48.5,30.27,South,186,0.0,34.0,82,0.00,,,0.00,Wunderground v.1.15,2013-12-19 00:40:00,
2013-12-18 19:45:00,53.8,48.1,30.28,SSE,167,0.0,34.0,81,0.00,,,0.00,Wunderground v.1.15,2013-12-19 00:45:00,
2013-12-18 19:50:00,54.7,48.3,30.27,SSE,148,3.0,34.0,79,0.00,,,0.00,Wunderground v.1.15,2013-12-19 00:50:00,
2013-12-18 19:55:00,55.5,48.4,30.28,SE,142,5.0,34.0,77,0.00,,,0.00,Wunderground v.1.15,2013-12-19 00:55:00,
2013-12-18 20:00:00,56.0,48.5,30.27,SE,139,4.0,34.0,76,0.00,,,0.00,Wunderground v.1.15,2013-12-19 01:00:00,
2013-12-18 20:05:00,56.0,48.5,30.27,SE,138,4.0,34.0,76,0.00,,,0.00,Wunderground v.1.15,2013-12-19 01:05:00,
2013-12-18 20:10:00,56.0,48.2,30.28,SE,140,5.0,34.0,75,0.00,,,0.00,Wunderground v.1.15,2013-12-19 01:10:00,
2013-12-18 20:15:00,56.1,48.6,30.28,SE,145,5.0,34.0,76,0.00,,,0.00,Wunderground v.1.15,2013-12-19 01:15:00,
2013-12-18 20:20:00,55.9,48.4,30.28,SE,144,4.0,34.0,76,0.00,,,0.00,Wunderground v.1.15,2013-12-19 01:20:00,
2013-12-18 20:25:00,55.8,48.3,30.28,SE,141,4.0,34.0,76,0.00,,,0.00,Wunderground v.1.15,2013-12-19 01:25:00,
2013-12-18 20:30:00,55.4,48.0,30.28,SE,136,5.0,34.0,76,0.00,,,0.00,Wunderground v.1.15,2013-12-19 01:30:00,
2013-12-18 20:35:00,55.1,48.0,30.27,SE,136,6.0,34.0,77,0.00,,,0.00,Wunderground v.1.15,2013-12-19 01:35:00,
2013-12-18 20:40:00,55.3,48.2,30.27,SE,136,6.0,6.0,77,0.00,,,0.00,Wunderground v.1.15,2013-12-19 01:40:00,
2013-12-18 20:45:00,55.4,48.3,30.28,SE,136,5.0,34.0,77,0.00,,,0.00,Wunderground v.1.15,2013-12-19 01:45:00,
2013-12-18 20:50:00,55.4,48.3,30.27,SE,136,4.0,34.0,77,0.00,,,0.00,Wunderground v.1.15,2013-12-19 01:50:00,
2013-12-18 20:55:00,55.0,48.3,30.28,SE,136,3.0,34.0,78,0.00,,,0.00,Wunderground v.1.15,2013-12-19 01:55:00,
2013-12-18 21:00:00,54.9,48.2,30.28,SE,136,3.0,34.0,78,0.00,,,0.00,Wunderground v.1.15,2013-12-19 02:00:00,
2013-12-18 21:05:00,54.8,48.7,30.28,SE,136,3.0,34.0,80,0.00,,,0.00,Wunderground v.1.15,2013-12-19 02:05:00,
2013-12-18 21:10:00,54.5,48.8,30.28,SE,136,3.0,34.0,81,0.00,,,0.00,Wunderground v.1.15,2013-12-19 02:10:00,
2013-12-18 21:15:00,54.5,48.8,30.28,SE,136,3.0,34.0,81,0.00,,,0.00,Wunderground v.1.15,2013-12-19 02:15:00,
2013-12-18 21:20:00,54.4,48.7,30.28,SE,136,3.0,3.0,81,0.00,,,0.00,Wunderground v.1.15,2013-12-19 02:20:00,
2013-12-18 21:25:00,54.2,48.5,30.28,SE,136,3.0,34.0,81,0.00,,,0.00,Wunderground v.1.15,2013-12-19 02:25:00,
2013-12-18 21:30:00,54.0,48.3,30.28,SE,136,2.0,2.0,81,0.00,,,0.00,Wunderground v.1.15,2013-12-19 02:30:00,
2013-12-18 21:40:00,53.8,48.4,30.28,SE,136,1.0,34.0,82,0.00,,,0.00,Wunderground v.1.15,2013-12-19 02:40:00,
2013-12-18 21:45:00,53.7,48.3,30.28,SE,136,1.0,34.0,82,0.00,,,0.00,Wunderground v.1.15,2013-12-19 02:45:00,
2013-12-18 21:50:00,53.6,48.6,30.28,SE,136,0.0,34.0,83,0.00,,,0.00,Wunderground v.1.15,2013-12-19 02:50:00,
2013-12-18 21:55:00,53.4,48.7,30.28,SE,136,0.0,34.0,84,0.00,,,0.00,Wunderground v.1.15,2013-12-19 02:55:00,
2013-12-18 22:00:00,53.2,48.5,30.28,SE,136,0.0,34.0,84,0.00,,,0.00,Wunderground v.1.15,2013-12-19 03:00:00,
2013-12-18 22:05:00,53.3,48.6,30.28,SE,136,0.0,34.0,84,0.00,,,0.00,Wunderground v.1.15,2013-12-19 03:05:00,
2013-12-18 22:15:00,53.5,49.1,30.28,SE,136,0.0,34.0,85,0.00,,,0.00,Wunderground v.1.15,2013-12-19 03:15:00,
2013-12-18 22:20:00,53.4,49.3,30.28,SE,136,0.0,34.0,86,0.00,,,0.00,Wunderground v.1.15,2013-12-19 03:20:00,
2013-12-18 22:30:00,53.1,49.0,30.28,SE,136,0.0,34.0,86,0.00,,,0.00,Wunderground v.1.15,2013-12-19 03:30:00,
2013-12-18 22:35:00,53.3,49.2,30.28,SE,136,0.0,34.0,86,0.00,,,0.00,Wunderground v.1.15,2013-12-19 03:35:00,
2013-12-18 22:40:00,53.3,49.2,30.28,SE,136,0.0,34.0,86,0.00,,,0.00,Wunderground v.1.15,2013-12-19 03:40:00,
2013-12-18 22:45:00,53.3,49.2,30.28,SE,136,0.0,34.0,86,0.00,,,0.00,Wunderground v.1.15,2013-12-19 03:45:00,
2013-12-18 22:50:00,53.4,49.0,30.28,SE,136,1.0,34.0,85,0.00,,,0.00,Wunderground v.1.15,2013-12-19 03:50:00,
2013-12-18 22:55:00,53.5,48.8,30.28,SE,136,3.0,34.0,84,0.00,,,0.00,Wunderground v.1.15,2013-12-19 03:55:00,
2013-12-18 23:00:00,53.4,49.0,30.28,SE,136,3.0,3.0,85,0.00,,,0.00,Wunderground v.1.15,2013-12-19 04:00:00,
2013-12-18 23:05:00,53.3,48.9,30.27,SE,136,2.0,34.0,85,0.00,,,0.00,Wunderground v.1.15,2013-12-19 04:05:00,
2013-12-18 23:10:00,53.2,48.5,30.28,SE,136,2.0,34.0,84,0.00,,,0.00,Wunderground v.1.15,2013-12-19 04:10:00,
2013-12-18 23:15:00,53.0,48.0,30.27,SE,136,2.0,34.0,83,0.00,,,0.00,Wunderground v.1.15,2013-12-19 04:15:00,
2013-12-18 23:20:00,52.8,47.8,30.27,SE,136,2.0,34.0,83,0.00,,,0.00,Wunderground v.1.15,2013-12-19 04:20:00,
2013-12-18 23:25:00,52.7,47.7,30.27,SE,137,2.0,34.0,83,0.00,,,0.00,Wunderground v.1.15,2013-12-19 04:25:00,
2013-12-18 23:30:00,52.6,47.9,30.27,SE,136,2.0,2.0,84,0.00,,,0.00,Wunderground v.1.15,2013-12-19 04:30:00,
2013-12-18 23:35:00,52.4,47.7,30.27,SE,136,1.0,34.0,84,0.00,,,0.00,Wunderground v.1.15,2013-12-19 04:35:00,
2013-12-18 23:40:00,52.4,46.7,30.27,SE,136,2.0,34.0,81,0.00,,,0.00,Wunderground v.1.15,2013-12-19 04:40:00,
2013-12-18 23:45:00,53.1,47.1,30.27,SE,136,3.0,34.0,80,0.00,,,0.00,Wunderground v.1.15,2013-12-19 04:45:00,
2013-12-18 23:50:00,53.4,47.0,30.27,SE,136,2.0,2.0,79,0.00,,,0.00,Wunderground v.1.15,2013-12-19 04:50:00,
2013-12-18 23:55:00,53.5,46.8,30.27,SE,136,2.0,5.0,78,0.00,,,0.00,Wunderground v.1.15,2013-12-19 04:55:00,